Vorticity
6 5 7 5 4 8 13 6 3 3 6 7 8 9 12 15 19 14 17 21 18 16 12 19 27 24 -2 -8 -3 -1 11 27 25 20 9 11 12 7 14 3 2 15 30 33 47 16 29 11 11 2 0 0 17 14
5 7 4 4 10 11 5 4 5 7 9 8 9 10 16 15 17 18 25 26 25 21 7 18 19 14 16 19 17 17 4 -12 3 10 10 9 8 3 16 7 23 17 -7 12 -7 14 6 5 15 18 21 11 8 4
7 4 4 10 10 5 5 7 8 10 9 8 10 16 16 15 15 20 22 20 18 23 26 19 10 19 18 18 10 10 16 21 8 -5 -0 3 6 4 5 24 5 19 13 -7 8 17 -1 7 7 2 5 8 14 12
4 5 10 11 6 6 6 8 9 9 8 11 17 18 14 13 15 19 21 19 16 13 4 8 15 19 22 18 12 14 19 21 21 13 14 8 1 10 9 4 6 4 12 18 10 4 5 10 12 13 13 10 9 10
4 9 11 7 5 6 5 7 8 7 11 16 19 13 12 12 17 19 16 14 23 18 14 18 15 13 14 16 22 28 20 16 17 15 14 14 16 15 15 11 10 3 4 6 2 11 10 5 11 15 11 9 9 10
9 10 8 6 5 5 6 7 8 10 13 18 15 11 12 12 11 14 17 17 24 29 25 20 1 4 16 17 19 15 4 12 25 19 14 20 21 7 14 15 19 20 19 9 5 6 8 12 13 14 15 15 14 12
11 9 7 6 6 5 6 8 9 10 15 19 13 9 10 10 9 9 9 10 6 20 23 7 4 -4 1 10 5 4 10 18 16 13 12 18 15 8 11 -1 1 6 10 13 15 14 15 13 14 18 17 17 16 15
10 7 6 6 6 6 8 9 9 13 15 20 14 9 11 10 6 7 5 8 5 5 18 -10 3 19 2 12 18 16 14 12 11 9 10 11 14 14 17 18 19 17 14 13 12 14 15 13 14 15 13 12 11 10
7 7 7 7 7 8 9 10 11 14 14 20 14 10 14 10 9 6 6 5 15 10 11 -20 18 11 3 6 6 14 16 15 15 14 11 18 10 8 6 10 13 16 16 16 19 18 16 15 13 12 11 12 13 13
7 7 7 8 8 9 11 11 11 12 16 18 13 11 14 7 11 11 18 5 14 4 11 -13 8 9 7 8 3 25 14 8 14 15 18 18 13 13 14 14 15 14 14 13 12 12 11 11 11 12 12 12 13 13
7 7 7 8 9 10 10 11 9 12 16 17 14 10 14 13 19 23 12 12 13 15 1 -12 7 10 9 15 10 17 10 15 16 5 17 9 6 9 13 16 18 18 17 16 19 18 19 16 13 11 11 10 10 10
7 7 7 9 10 9 13 7 8 17 17 16 15 18 23 24 16 12 8 3 17 -2 -8 6 12 12 13 21 25 17 17 16 9 8 16 12 4 9 16 19 21 22 19 10 6 5 5 5 6 6 6 6 4 3
7 6 8 9 9 11 15 4 15 16 18 24 23 22 15 13 9 7 -1 -4 3 6 6 12 18 20 15 23 15 20 13 9 10 19 12 6 12 16 17 7 1 -3 5 5 5 7 6 7 7 8 8 7 7 6
6 6 8 9 7 18 8 10 21 22 22 15 21 15 13 9 -8 6 10 3 6 9 13 12 17 18 13 39 11 11 10 11 12 11 6 13 7 -0 1 4 13 13 10 9 9 9 7 6 5 5 6 7 8 10
5 7 9 6 15 9 16 20 21 16 11 19 19 11 -9 -1 11 6 12 7 9 9 11 14 26 29 20 14 13 10 16 13 9 11 3 -0 5 2 5 13 15 10 9 8 6 6 7 8 8 11 16 18 19 19
5 8 11 5 12 15 20 17 17 15 12 19 6 -2 6 8 10 16 4 9 7 6 10 16 24 20 17 12 13 3 9 6 10 4 -6 -3 4 11 23 16 9 6 6 10 11 8 9 17 23 17 14 15 16 17
6 10 4 14 10 26 14 15 13 15 12 -0 5 4 6 14 11 5 13 12 10 9 9 31 24 11 9 24 11 17 1 4 -1 -3 -1 2 6 21 18 13 8 11 10 10 9 7 22 14 10 11 12 13 13 12
3 14 3 13 20 16 11 14 15 16 -3 9 9 9 10 13 8 13 13 11 16 15 14 11 7 11 -4 -2 -6 -10 -5 4 13 8 3 18 25 16 11 13 13 13 10 7 8 20 11 10 12 14 13 13 12 12
7 8 4 7 36 14 13 15 8 9 7 3 6 5 8 13 15 14 17 14 11 16 20 23 16 -8 3 11 12 10 11 5 9 20 17 20 21 14 10 14 -0 8 13 11 17 10 11 15 10 7 7 10 12 16
10 9 4 5 43 7 13 12 13 15 -6 -3 4 -1 0 3 8 15 12 16 16 12 15 12 22 15 20 19 15 14 17 15 20 20 17 15 11 10 13 4 4 17 20 16 9 14 12 6 4 7 6 8 11 12
12 9 -3 44 26 8 2 5 6 6 0 4 3 0 -8 -0 4 14 14 12 25 27 10 11 14 23 16 19 25 23 18 17 16 12 8 9 14 16 12 16 22 18 10 10 15 11 4 7 6 4 4 3 8 11
11 4 34 25 21 7 7 11 13 5 10 -9 -4 -3 -1 3 0 25 14 28 1 17 13 16 18 21 17 21 -6 -13 -0 24 18 17 17 19 19 20 21 20 13 9 11 15 13 2 8 2 0 2 3 4 4 10
15 17 31 25 19 12 8 10 23 15 -7 -4 4 1 8 -0 14 26 9 7 13 24 17 21 20 19 16 5 -2 -3 5 15 16 10 9 20 16 21 17 12 12 11 16 13 2 5 2 2 1 3 3 1 8 9
19 35 27 25 6 -10 5 6 19 11 2 1 -3 6 6 12 10 6 15 7 27 25 17 6 11 13 11 11 -5 -8 16 15 7 1 7 4 19 15 21 15 10 14 16 3 2 2 -3 -4 1 5 1 3 8 1
41 14 9 9 8 2 5 14 19 23 9 -3 1 9 17 15 7 10 47 20 15 20 -7 6 16 11 7 2 4 7 2 15 9 14 11 6 16 10 20 19 11 14 12 6 4 3 8 6 4 1 4 9 -1 19
16 25 -3 4 -4 1 -3 17 20 15 6 -1 28 14 7 17 33 6 1 25 5 10 -3 6 10 13 -0 3 27 38 33 27 27 26 20 9 18 14 12 20 15 12 9 6 4 4 3 4 8 10 7 3 25 20
16 -3 7 10 -12 -1 6 14 20 10 -4 24 -0 17 50 21 34 1 -13 -1 -3 -11 6 13 13 18 38 25 13 19 24 25 23 23 24 24 18 16 15 16 17 15 11 10 11 13 11 9 5 5 16 22 17 15
12 7 14 -5 -16 11 13 18 18 25 16 0 -0 12 4 -29 -19 -6 7 13 13 12 11 22 32 30 10 14 21 10 14 11 7 6 6 6 5 7 8 8 8 8 7 4 2 3 5 9 15 23 18 22 12 10
8 17 4 -15 -6 14 24 29 14 1 -10 -1 11 22 15 14 15 15 14 10 13 30 25 34 18 11 17 13 4 14 8 -3 2 13 14 10 5 7 8 7 7 2 0 8 16 19 20 18 23 27 15 15 8 9
10 9 -5 2 11 15 26 19 -4 -3 1 16 23 19 13 12 14 15 22 29 23 25 28 11 11 16 14 0 10 8 -2 -1 9 12 -3 0 21 26 26 25 24 22 18 17 23 30 34 24 13 10 15 21 21 20
9 13 13 11 12 20 13 3 2 18 23 18 10 11 22 21 23 22 21 25 30 21 7 9 16 13 8 5 6 9 6 -5 6 1 5 23 28 27 26 25 24 21 19 21 23 19 15 15 18 18 17 16 16 17
18 7 10 13 13 7 16 22 18 13 13 14 20 33 32 27 29 34 23 12 17 6 5 12 16 12 5 6 4 3 6 0 6 22 28 28 26 23 17 14 16 17 11 20 19 15 12 11 9 8 9 9 9 9
8 17 15 14 18 19 14 17 10 8 20 23 45 27 17 18 13 7 0 16 15 9 10 11 12 11 5 7 7 -0 -3 17 27 27 26 22 17 17 16 23 12 11 17 12 12 11 8 9 9 10 11 11 10 10
Height
3049 3049 3049 3048 3046 3045 3044 3041 3038 3034 3030 3025 3020 3014 3007 3001 2995 2990 2986 2980 2978 2975 2972 2971 2970 2969 2968 2968 2968 2968 2969 2966 2966 2966 2966 2965 2964 2964 2964 2963 2963 2965 2965 2965 2968 2969 2969 2966 2966 2969 2968 2966 2966 2966
3047 3048 3048 3046 3044 3043 3041 3038 3035 3031 3025 3020 3015 3008 3001 2995 2989 2984 2979 2973 2970 2968 2966 2964 2963 2962 2961 2961 2961 2960 2963 2963 2962 2962 2962 2962 2962 2961 2960 2960 2960 2963 2963 2962 2964 2963 2961 2961 2962 2962 2962 2964 2964 2965
3046 3046 3045 3044 3041 3041 3039 3035 3031 3027 3021 3015 3009 3002 2995 2990 2984 2979 2973 2969 2965 2963 2961 2960 2958 2957 2956 2956 2955 2956 2956 2957 2957 2959 2959 2959 2960 2959 2958 2957 2957 2957 2957 2958 2959 2958 2958 2958 2958 2959 2959 2960 2961 2962
3044 3043 3042 3041 3040 3038 3035 3032 3026 3022 3017 3010 3003 2997 2991 2986 2982 2976 2971 2968 2964 2961 2960 2959 2956 2955 2954 2952 2952 2951 2951 2951 2952 2953 2953 2954 2955 2955 2955 2954 2954 2955 2954 2954 2953 2953 2953 2954 2955 2955 2956 2956 2957 2958
3042 3041 3040 3039 3038 3034 3031 3026 3022 3017 3012 3005 2999 2994 2988 2984 2980 2976 2971 2967 2963 2963 2960 2958 2957 2956 2954 2952 2950 2948 2948 2947 2947 2948 2948 2949 2949 2951 2949 2949 2948 2949 2949 2950 2949 2949 2949 2950 2950 2950 2951 2951 2952 2953
3040 3038 3038 3036 3034 3031 3027 3022 3017 3013 3007 3001 2996 2991 2987 2983 2980 2976 2972 2968 2962 2960 2959 2959 2959 2957 2954 2952 2950 2948 2947 2945 2944 2944 2944 2944 2945 2946 2944 2942 2941 2942 2943 2942 2943 2943 2943 2944 2945 2945 2945 2946 2947 2948
3037 3036 3035 3033 3031 3027 3022 3017 3013 3008 3003 2997 2993 2989 2985 2983 2980 2977 2975 2971 2966 2963 2961 2961 2960 2958 2955 2953 2951 2948 2946 2944 2943 2942 2940 2941 2941 2941 2939 2938 2938 2938 2938 2938 2938 2938 2938 2938 2939 2940 2940 2941 2942 2943
3034 3033 3032 3030 3027 3023 3019 3014 3009 3004 2998 2994 2990 2987 2984 2982 2979 2977 2975 2972 2969 2967 2964 2964 2962 2958 2956 2953 2950 2947 2945 2943 2941 2940 2939 2938 2938 2937 2935 2933 2933 2933 2933 2933 2933 2933 2934 2934 2935 2935 2936 2937 2938 2939
3032 3030 3028 3026 3023 3019 3014 3010 3005 3000 2995 2991 2988 2985 2983 2981 2979 2977 2974 2971 2969 2970 2965 2964 2961 2959 2956 2952 2949 2946 2943 2940 2939 2937 2936 2937 2934 2933 2931 2931 2930 2930 2930 2930 2930 2930 2931 2931 2931 2932 2932 2933 2934 2935
3028 3027 3024 3022 3018 3014 3011 3006 3001 2996 2992 2988 2985 2982 2979 2979 2976 2976 2972 2971 2968 2966 2964 2963 2961 2958 2956 2951 2947 2945 2942 2940 2937 2936 2934 2932 2931 2930 2929 2929 2928 2928 2927 2927 2927 2928 2928 2929 2929 2929 2930 2930 2930 2931
3025 3023 3021 3018 3014 3010 3006 3002 2997 2993 2989 2985 2982 2980 2978 2975 2974 2973 2972 2971 2968 2966 2964 2962 2959 2956 2953 2949 2946 2944 2940 2938 2935 2935 2933 2930 2928 2928 2927 2926 2925 2925 2925 2926 2926 2926 2926 2927 2927 2927 2927 2928 2928 2928
3022 3020 3017 3013 3010 3006 3001 2997 2993 2989 2985 2982 2980 2977 2975 2973 2973 2974 2972 2971 2969 2967 2964 2960 2956 2952 2949 2946 2943 2940 2938 2936 2933 2932 2930 2927 2926 2926 2925 2924 2924 2924 2924 2925 2925 2925 2925 2925 2925 2925 2925 2925 2925 2925
3018 3016 3013 3009 3006 3002 2997 2993 2988 2984 2980 2977 2977 2975 2975 2975 2975 2973 2972 2970 2968 2964 2960 2956 2953 2950 2945 2944 2940 2938 2935 2933 2931 2928 2926 2925 2925 2924 2924 2924 2924 2925 2924 2924 2923 2923 2922 2922 2921 2921 2920 2920 2919 2918
3014 3012 3009 3005 3002 2998 2993 2989 2985 2981 2978 2977 2976 2975 2976 2975 2975 2973 2971 2968 2964 2960 2956 2951 2948 2946 2942 2940 2937 2934 2932 2930 2927 2925 2924 2923 2923 2922 2922 2922 2922 2922 2921 2920 2919 2918 2917 2917 2916 2915 2914 2913 2911 2910
3010 3008 3004 3001 2997 2993 2989 2986 2982 2979 2978 2977 2976 2976 2976 2975 2972 2970 2967 2963 2960 2956 2952 2948 2944 2941 2938 2936 2934 2932 2929 2925 2923 2921 2921 2921 2920 2920 2919 2918 2918 2917 2916 2915 2914 2913 2912 2910 2909 2907 2905 2903 2902 2900
3006 3004 3000 2997 2992 2989 2985 2982 2980 2978 2977 2976 2975 2975 2974 2972 2969 2965 2962 2959 2955 2951 2947 2943 2939 2935 2933 2932 2929 2927 2924 2920 2919 2919 2918 2917 2916 2915 2914 2913 2912 2912 2910 2909 2908 2907 2905 2903 2901 2899 2897 2896 2894 2892
3001 2999 2995 2992 2988 2984 2982 2980 2977 2976 2975 2975 2973 2972 2970 2967 2964 2961 2958 2954 2950 2947 2943 2940 2938 2934 2930 2927 2924 2921 2919 2919 2917 2915 2913 2911 2910 2909 2908 2907 2907 2906 2905 2903 2902 2900 2898 2897 2895 2894 2892 2890 2889 2887
2996 2993 2991 2987 2983 2981 2979 2976 2974 2974 2972 2971 2970 2968 2965 2963 2960 2956 2952 2948 2945 2941 2937 2936 2932 2928 2927 2921 2919 2918 2915 2913 2911 2909 2907 2905 2904 2903 2902 2901 2900 2900 2898 2897 2896 2894 2893 2892 2890 2888 2887 2885 2884 2881
2991 2988 2985 2982 2979 2977 2974 2972 2971 2969 2968 2966 2965 2963 2961 2958 2954 2950 2946 2942 2939 2935 2931 2926 2925 2920 2919 2916 2914 2911 2909 2906 2904 2902 2900 2898 2897 2896 2896 2895 2894 2893 2892 2891 2890 2889 2887 2886 2885 2883 2882 2880 2878 2875
2985 2981 2979 2976 2972 2971 2970 2968 2967 2964 2962 2962 2960 2957 2954 2952 2948 2944 2940 2936 2931 2928 2924 2920 2917 2914 2911 2909 2906 2904 2902 2900 2897 2895 2894 2892 2891 2890 2889 2888 2887 2886 2885 2884 2884 2883 2882 2881 2879 2878 2875 2872 2869 2867
2978 2975 2971 2968 2966 2966 2966 2963 2961 2959 2956 2955 2954 2951 2948 2945 2941 2937 2933 2928 2924 2921 2916 2913 2910 2907 2904 2902 2900 2899 2897 2894 2891 2889 2887 2886 2884 2883 2881 2881 2880 2879 2879 2879 2878 2878 2877 2875 2874 2872 2870 2867 2864 2861
2971 2968 2964 2960 2960 2960 2959 2958 2957 2954 2951 2949 2947 2944 2939 2936 2932 2929 2923 2920 2916 2913 2909 2906 2903 2900 2898 2897 2895 2893 2891 2888 2886 2883 2880 2878 2877 2875 2873 2873 2873 2873 2873 2872 2872 2872 2871 2869 2868 2866 2863 2860 2856 2853
2963 2960 2957 2956 2956 2955 2955 2952 2950 2947 2945 2941 2939 2936 2932 2928 2924 2920 2916 2911 2908 2905 2902 2899 2897 2895 2893 2892 2890 2886 2884 2882 2880 2877 2874 2872 2870 2868 2867 2867 2867 2866 2866 2866 2866 2865 2865 2863 2860 2858 2855 2852 2848 2844
2955 2952 2950 2950 2949 2949 2948 2945 2943 2941 2938 2935 2932 2928 2923 2920 2916 2910 2906 2903 2900 2897 2896 2894 2892 2890 2889 2886 2884 2881 2878 2875 2873 2871 2869 2866 2864 2862 2860 2860 2860 2860 2860 2859 2858 2858 2856 2855 2852 2849 2846 2842 2839 2835
2949 2947 2947 2944 2943 2944 2942 2938 2936 2934 2931 2928 2925 2920 2915 2911 2906 2901 2897 2894 2893 2891 2890 2888 2886 2884 2882 2879 2877 2873 2870 2867 2865 2863 2863 2860 2858 2856 2854 2853 2853 2854 2853 2852 2851 2849 2848 2846 2843 2840 2837 2833 2828 2824
2941 2939 2940 2938 2937 2937 2934 2931 2929 2926 2923 2920 2916 2912 2908 2903 2898 2894 2888 2888 2887 2885 2883 2880 2878 2876 2874 2869 2866 2863 2860 2857 2855 2854 2854 2852 2850 2848 2847 2846 2846 2846 2845 2843 2841 2839 2838 2836 2833 2829 2826 2823 2818 2813
2934 2933 2932 2932 2931 2930 2926 2924 2921 2918 2915 2912 2908 2905 2901 2896 2890 2887 2885 2883 2880 2877 2875 2872 2869 2866 2863 2860 2858 2855 2853 2851 2849 2848 2846 2845 2843 2841 2840 2839 2838 2838 2836 2834 2832 2830 2827 2824 2821 2818 2815 2811 2807 2802
2928 2927 2927 2928 2925 2922 2919 2915 2912 2910 2907 2905 2902 2898 2894 2890 2885 2882 2878 2874 2871 2868 2865 2862 2859 2857 2856 2854 2852 2850 2848 2846 2845 2844 2842 2840 2838 2836 2835 2833 2831 2829 2827 2824 2822 2820 2817 2814 2811 2807 2803 2799 2796 2793
2923 2923 2923 2920 2918 2914 2911 2908 2905 2902 2900 2895 2891 2887 2882 2878 2875 2871 2867 2864 2861 2858 2855 2853 2852 2851 2850 2848 2847 2845 2844 2842 2841 2839 2837 2834 2832 2830 2826 2823 2821 2819 2816 2814 2811 2808 2806 2803 2801 2798 2795 2792 2789 2785
2920 2918 2915 2912 2909 2905 2903 2900 2896 2892 2888 2884 2879 2874 2871 2868 2864 2859 2855 2853 2851 2849 2848 2848 2847 2846 2845 2843 2842 2840 2838 2836 2833 2831 2828 2825 2821 2818 2815 2812 2809 2806 2804 2802 2800 2799 2797 2795 2793 2791 2788 2785 2782 2778
2912 2909 2906 2903 2899 2896 2893 2890 2886 2881 2877 2873 2869 2865 2860 2854 2851 2848 2846 2845 2843 2843 2843 2842 2841 2840 2839 2838 2837 2835 2833 2830 2826 2822 2817 2812 2809 2805 2802 2800 2798 2796 2795 2794 2793 2792 2790 2788 2786 2784 2781 2778 2775 2772
2902 2899 2896 2891 2889 2886 2882 2877 2873 2869 2865 2862 2857 2853 2848 2845 2843 2841 2840 2839 2839 2838 2837 2836 2835 2834 2833 2831 2829 2826 2823 2820 2816 2811 2806 2802 2799 2797 2794 2793 2791 2789 2788 2788 2787 2786 2784 2782 2780 2778 2776 2774 2771 2768
2891 2889 2885 2881 2877 2873 2870 2867 2861 2856 2853 2850 2847 2845 2843 2841 2840 2839 2837 2835 2834 2832 2831 2830 2829 2828 2826 2824 2821 2816 2812 2808 2804 2800 2797 2794 2792 2790 2788 2787 2786 2784 2783 2782 2781 2780 2779 2777 2776 2774 2772 2769 2767 2764